Location: Briarstone Lake
(43.1454°N, 93.2359°W)
Time: 22:52:25
(UTC+00:00)

BlueWalker 3 - Visible Passes

Search period start: 24 January 2026 00:00
Search period end: 03 February 2026 00:00
Orbit: 451 x 462 km, 53.2° (Epoch: 24 January)

Date Brightness Start Highest point End Pass type
(mag) Time Alt. Az. Time Alt. Az. Time Alt. Az.
24 Jan 1.7 00:00:32 10° SW 00:04:05 71° SE 00:07:07 14° ENE visible
24 Jan 3.9 01:38:51 10° WNW 01:40:52 22° NW 01:40:52 22° NW visible
25 Jan 3.2 01:03:09 10° W 01:06:18 28° NNW 01:06:57 27° N visible
26 Jan 3.0 00:27:27 10° W 00:30:44 33° NNW 00:32:58 17° NNE visible
26 Jan 5.0 02:06:40 10° NW 02:06:42 10° NW 02:06:42 10° NW visible
26 Jan 2.7 23:51:46 10° W 23:55:10 40° NNW 23:58:33 10° NE visible
27 Jan 4.1 01:30:56 10° NW 01:32:40 16° NNW 01:32:40 16° NNW visible
28 Jan 3.7 00:55:09 10° WNW 00:57:43 18° N 00:58:35 17° N visible
29 Jan 3.7 00:19:21 10° WNW 00:22:02 19° NNW 00:24:28 11° NNE visible
29 Jan 4.8 01:58:05 10° NW 01:58:12 10° NW 01:58:12 10° NW visible
30 Jan 4.0 01:22:27 10° NW 01:24:04 16° N 01:24:04 16° N visible
31 Jan 3.8 00:46:45 10° NW 00:49:05 16° N 00:49:55 15° NNE visible
1 Feb 3.8 00:11:00 10° NW 00:13:19 16° N 00:15:38 10° NE visible
1 Feb 4.4 01:48:43 10° NW 01:49:29 14° NNW 01:49:29 14° NNW visible
2 Feb 3.5 01:13:07 10° NW 01:15:21 21° N 01:15:21 21° N visible
